SCISAT 1

导读

SCISAT 1,又称大气化学实验卫星(ACE),是加拿大研发的科学卫星,于2003年8月13日发射升空,进入高度650公里、倾角74度的近地圆形轨道。卫星搭载高分辨率傅里叶变换光谱仪等仪器,通过太阳掩星技术,获取南北纬85度范围内,10-100公里高度的大气温度、压力及数十种痕量气体的垂直廓线数据,对研究臭氧层损耗等大气化学过程提供关键支撑,推动了全球气候变化与大气环境研究。

基本信息
目录编号:
27858
目录名称:
SCISAT 1
国际标识:
2003-036A
轨道中心:
EARTH
卫星名称:
SCISAT 1
卫星全名:
--
卫星状态:
在轨 (已飞行8430 天)
发射日期:
2003-08-13 UTC
国别 :
加拿大 (CA)
星等 :
--
该卫星已列入 空间交会检测服务 Space Conjunction Data Service (SCDS) ,当前飞行风险评估等级: 无高风险
轨道信息
数据来源 国际轨道数据
星历时间: 2026-09-11T15:45:33+0800
8小时前
查看轨道信息
半长轴: 7002.622km
偏心率: 0.0006521
轨道倾角: 73.932°
近地点辐角 35.040°
升交点赤经 0.186°
平近点角 325.121°
近地点: 619.918km
远地点: 629.052km
周期: 97.197分钟
每日圈数: 14.815346
详细信息
使用方式:
暂无
2D轨道图
3D轨道图
轨道高度分析图
轨道倾角分析图
轨道综合分析图
查看轨道综合分析图
与全量物体交会距离演化趋势
与全量物体交会风险概率演化趋势